sat.trackr.live / text

‹ back to catalog

BEIDOU-2 G3

NORAD 36590 · 2010-024A

PAYLOAD ACTIVE UNKNOWN

§ Identity

Operator
Country
PRC
Launch date
2010-06-02
Launch site
XICLF
Launch vehicle
Mass (kg)
RCS (m²)
52.40

Purposes: comms

External: N2YO · Heavens-Above · Gunter

§ Orbital elements

Epoch: 2026-09-20T01:54:14.925888Z

Period
1,436.07 min
Inclination
4.7363°
Eccentricity
0.0004930
Mean motion
1.00273546 rev/d
Perigee alt
35,765.3 km
Apogee alt
35,806.9 km
Semi-major
42,164.2 km
B*
0.0000e+0
RAAN
61.0044°
Arg perigee
0.9511°
Mean anomaly
45.2315°
Rev number
5,972

§ Raw data

BEIDOU-2 G31 36590U 10024A   26263.07933942 -.00000138  00000+0  00000+0 0  99972 36590   4.7363  61.0044 0004930   0.9511  45.2315  1.00273546 59726

JSON: /api/v1/satellites/36590 · /tle

For live sub-satellite position, see the globe view (requires WebGL).

§ Visibility from observer

Set your observer location to see the next 7 days of passes ≥ 10°. The values pass through the URL so the page stays shareable.

No JS? Fill the form by hand. The geolocation button needs JavaScript.